| time (UTC) | temp C | wind direction | speed KPH | gust KPH | rain 1hr cm | rain 24hr cm | rain mn cm | humidity % | barometer mb |
| 20260506222021 | 18 | 45 | 16.1 | 22.5 | 0.00 | 0.00 | 0.00 | 65 | 1015.5 |
| 20260506221708 | 18 | 68 | 11.3 | 20.9 | 0.00 | 0.00 | 0.00 | 65 | 1015.4 |
| 20260506221021 | 18 | 45 | 16.1 | 24.1 | 0.00 | 0.00 | 0.00 | 65 | 1015.4 |
| 20260506220521 | 18 | 45 | 17.7 | 24.1 | 0.00 | 0.00 | 0.00 | 65 | 1015.5 |
| 20260506220021 | 18 | 45 | 16.1 | 25.7 | 0.00 | 0.00 | 0.00 | 63 | 1015.5 |
| 20260506215521 | 18 | 45 | 12.9 | 24.1 | 0.00 | 0.00 | 0.00 | 64 | 1015.5 |
| 20260506215021 | 18 | 45 | 12.9 | 19.3 | 0.00 | 0.00 | 0.00 | 64 | 1015.5 |
| 20260506214521 | 18 | 45 | 14.5 | 20.9 | 0.00 | 0.00 | 0.00 | 65 | 1015.4 |
| 20260506214021 | 18 | 45 | 17.7 | 25.7 | 0.00 | 0.00 | 0.00 | 63 | 1015.6 |
| 20260506213521 | 18 | 45 | 12.9 | 19.3 | 0.00 | 0.00 | 0.00 | 64 | 1015.5 |
| 20260506213020 | 18 | 45 | 16.1 | 27.4 | 0.00 | 0.00 | 0.00 | 63 | 1015.4 |
| 20260506212606 | 19 | 45 | 17.7 | 25.7 | 0.00 | 0.00 | 0.00 | 62 | 1015.6 |
| 20260506212021 | 19 | 45 | 16.1 | 24.1 | 0.00 | 0.00 | 0.00 | 63 | 1015.6 |
| 20260506211522 | 19 | 45 | 14.5 | 22.5 | 0.00 | 0.00 | 0.00 | 62 | 1015.6 |
| 20260506211021 | 19 | 45 | 16.1 | 24.1 | 0.00 | 0.00 | 0.00 | 61 | 1015.7 |
| 20260506210809 | 19 | 45 | 11.3 | 19.3 | 0.00 | 0.00 | 0.00 | 63 | 1015.8 |
| 20260506210042 | 19 | 45 | 17.7 | 24.1 | 0.00 | 0.00 | 0.00 | 63 | 1015.9 |
| 20260506205621 | 19 | 338 | 6.4 | 12.9 | 0.00 | 0.00 | 0.00 | 61 | 1015.9 |
| 20260506205306 | 20 | 45 | 12.9 | 19.3 | 0.00 | 0.00 | 0.00 | 62 | 1016.0 |
| 20260506204521 | 20 | 45 | 16.1 | 24.1 | 0.00 | 0.00 | 0.00 | 59 | 1016.0 |
| 20260506204021 | 20 | 45 | 16.1 | 19.3 | 0.00 | 0.00 | 0.00 | 59 | 1016.1 |
| 20260506203555 | 20 | 23 | 6.4 | 8.0 | 0.00 | 0.00 | 0.00 | 59 | 1016.3 |
| 20260506203020 | 20 | 23 | 11.3 | 22.5 | 0.00 | 0.00 | 0.00 | 58 | 1016.3 |
| 20260506202540 | 20 | 45 | 8.0 | 20.9 | 0.00 | 0.00 | 0.00 | 58 | 1016.4 |
| 20260506202023 | 20 | 45 | 14.5 | 19.3 | 0.00 | 0.00 | 0.00 | 56 | 1016.4 |
| 20260506201521 | 20 | 45 | 9.7 | 19.3 | 0.00 | 0.00 | 0.00 | 56 | 1016.2 |
| 20260506201020 | 20 | 45 | 8.0 | 12.9 | 0.00 | 0.00 | 0.00 | 57 | 1016.1 |
| 20260506200521 | 20 | 45 | 9.7 | 17.7 | 0.00 | 0.00 | 0.00 | 58 | 1016.0 |
| 20260506200021 | 20 | 45 | 12.9 | 20.9 | 0.00 | 0.00 | 0.00 | 59 | 1015.9 |
| 20260506195637 | 19 | 45 | 9.7 | 17.7 | 0.00 | 0.00 | 0.00 | 62 | 1015.7 |
| 20260506195021 | 19 | 45 | 17.7 | 27.4 | 0.00 | 0.00 | 0.00 | 62 | 1015.5 |
| 20260506194542 | 19 | 45 | 17.7 | 25.7 | 0.00 | 0.00 | 0.00 | 61 | 1015.5 |
| 20260506194021 | 18 | 45 | 17.7 | 27.4 | 0.00 | 0.00 | 0.00 | 62 | 1015.3 |
| 20260506193508 | 18 | 45 | 14.5 | 24.1 | 0.00 | 0.00 | 0.00 | 61 | 1015.2 |
| 20260506193020 | 18 | 45 | 16.1 | 24.1 | 0.00 | 0.00 | 0.00 | 60 | 1015.4 |
| 20260506192611 | 18 | 45 | 14.5 | 27.4 | 0.00 | 0.00 | 0.00 | 62 | 1015.6 |
| 20260506192021 | 18 | 45 | 14.5 | 25.7 | 0.00 | 0.00 | 0.00 | 61 | 1015.7 |
| 20260506191524 | 18 | 45 | 14.5 | 25.7 | 0.00 | 0.00 | 0.00 | 62 | 1015.5 |
| 20260506191058 | 18 | 45 | 12.9 | 22.5 | 0.00 | 0.00 | 0.00 | 64 | 1015.7 |
| 20260506190520 | 17 | 45 | 12.9 | 25.7 | 0.00 | 0.00 | 0.00 | 63 | 1015.7 |
| 20260506190021 | 17 | 45 | 12.9 | 22.5 | 0.00 | 0.00 | 0.00 | 64 | 1015.7 |
| 20260506185612 | 17 | 45 | 17.7 | 27.4 | 0.00 | 0.00 | 0.00 | 64 | 1015.4 |
| 20260506185020 | 17 | 45 | 19.3 | 29.0 | 0.00 | 0.00 | 0.00 | 65 | 1015.5 |
| 20260506184521 | 17 | 45 | 17.7 | 27.4 | 0.00 | 0.00 | 0.00 | 64 | 1015.4 |
| 20260506184021 | 17 | 45 | 24.1 | 32.2 | 0.00 | 0.00 | 0.00 | 65 | 1015.4 |
| 20260506183520 | 17 | 45 | 17.7 | 35.4 | 0.00 | 0.00 | 0.00 | 64 | 1015.5 |
| 20260506183041 | 16 | 45 | 19.3 | 30.6 | 0.00 | 0.00 | 0.00 | 66 | 1015.6 |
| 20260506182520 | 16 | 45 | 17.7 | 33.8 | 0.00 | 0.00 | 0.00 | 66 | 1015.6 |
| 20260506182022 | 16 | 45 | 20.9 | 30.6 | 0.00 | 0.00 | 0.00 | 65 | 1015.8 |
| 20260506181521 | 16 | 45 | 17.7 | 29.0 | 0.00 | 0.00 | 0.00 | 66 | 1015.9 |
| 20260506181020 | 16 | 45 | 20.9 | 35.4 | 0.00 | 0.00 | 0.00 | 64 | 1015.9 |
| 20260506180650 | 17 | 45 | 20.9 | 32.2 | 0.00 | 0.00 | 0.00 | 63 | 1015.9 |
| 20260506180036 | 16 | 45 | 22.5 | 29.0 | 0.00 | 0.00 | 0.00 | 65 | 1016.0 |
| 20260506175508 | 16 | 45 | 17.7 | 25.7 | 0.00 | 0.00 | 0.00 | 70 | 1016.2 |
| 20260506175042 | 16 | 45 | 20.9 | 33.8 | 0.00 | 0.00 | 0.00 | 68 | 1016.3 |
| 20260506174541 | 16 | 45 | 17.7 | 32.2 | 0.00 | 0.00 | 0.00 | 67 | 1016.3 |
| 20260506174043 | 16 | 68 | 17.7 | 30.6 | 0.00 | 0.00 | 0.00 | 68 | 1016.4 |
| 20260506173543 | 16 | 68 | 14.5 | 22.5 | 0.00 | 0.00 | 0.00 | 69 | 1016.3 |
| 20260506173021 | 16 | 45 | 19.3 | 27.4 | 0.00 | 0.00 | 0.00 | 69 | 1016.3 |
| 20260506172522 | 16 | 45 | 20.9 | 30.6 | 0.00 | 0.00 | 0.00 | 67 | 1016.3 |
| 20260506172042 | 15 | 68 | 17.7 | 33.8 | 0.00 | 0.00 | 0.00 | 68 | 1016.1 |
| 20260506171522 | 15 | 68 | 16.1 | 29.0 | 0.00 | 0.00 | 0.00 | 71 | 1016.1 |
| 20260506171023 | 15 | 45 | 24.1 | 35.4 | 0.00 | 0.00 | 0.00 | 69 | 1016.1 |
| 20260506170523 | 15 | 68 | 16.1 | 25.7 | 0.00 | 0.00 | 0.00 | 70 | 1016.3 |
| 20260506170024 | 15 | 45 | 19.3 | 30.6 | 0.00 | 0.00 | 0.00 | 69 | 1016.3 |
| 20260506165543 | 15 | 45 | 19.3 | 29.0 | 0.00 | 0.00 | 0.00 | 71 | 1016.4 |
| 20260506165021 | 15 | 45 | 22.5 | 32.2 | 0.00 | 0.00 | 0.00 | 71 | 1016.4 |
| 20260506164523 | 15 | 45 | 19.3 | 32.2 | 0.00 | 0.00 | 0.00 | 71 | 1016.2 |
| 20260506164023 | 15 | 45 | 19.3 | 30.6 | 0.00 | 0.00 | 0.00 | 70 | 1016.3 |
| 20260506163523 | 15 | 45 | 19.3 | 25.7 | 0.00 | 0.00 | 0.00 | 72 | 1016.4 |
| 20260506163022 | 14 | 45 | 17.7 | 25.7 | 0.00 | 0.00 | 0.00 | 72 | 1016.7 |
| 20260506162523 | 14 | 45 | 16.1 | 25.7 | 0.00 | 0.00 | 0.00 | 71 | 1016.9 |
| 20260506162022 | 14 | 45 | 16.1 | 24.1 | 0.00 | 0.00 | 0.00 | 71 | 1016.9 |
| 20260506161546 | 13 | 45 | 14.5 | 20.9 | 0.00 | 0.00 | 0.00 | 71 | 1016.9 |
| 20260506161022 | 13 | 45 | 11.3 | 17.7 | 0.00 | 0.00 | 0.00 | 73 | 1017.0 |
| 20260506160522 | 13 | 45 | 8.0 | 14.5 | 0.00 | 0.00 | 0.00 | 74 | 1017.4 |
| 20260506160022 | 13 | 68 | 4.8 | 11.3 | 0.00 | 0.00 | 0.00 | 72 | 1017.4 |
| 20260506155522 | 13 | 45 | 4.8 | 9.7 | 0.00 | 0.00 | 0.00 | 73 | 1017.6 |
| 20260506155022 | 13 | 68 | 11.3 | 19.3 | 0.00 | 0.00 | 0.00 | 73 | 1017.1 |
| 20260506154735 | 13 | 68 | 12.9 | 19.3 | 0.00 | 0.00 | 0.00 | 73 | 1016.7 |
| 20260506154046 | 13 | 68 | 12.9 | 20.9 | 0.00 | 0.00 | 0.00 | 73 | 1016.6 |
| 20260506153522 | 13 | 45 | 14.5 | 20.9 | 0.00 | 0.00 | 0.00 | 74 | 1016.6 |
| 20260506153022 | 13 | 45 | 16.1 | 24.1 | 0.00 | 0.00 | 0.00 | 75 | 1016.5 |
| 20260506152522 | 13 | 45 | 12.9 | 20.9 | 0.00 | 0.00 | 0.00 | 75 | 1016.4 |
| 20260506152042 | 13 | 45 | 9.7 | 17.7 | 0.00 | 0.00 | 0.00 | 76 | 1016.5 |
| 20260506151544 | 12 | 45 | 14.5 | 24.1 | 0.00 | 0.00 | 0.00 | 75 | 1016.3 |
| 20260506151022 | 12 | 68 | 12.9 | 20.9 | 0.00 | 0.00 | 0.00 | 75 | 1016.3 |
| 20260506150543 | 12 | 45 | 14.5 | 20.9 | 0.00 | 0.00 | 0.00 | 75 | 1016.3 |
| 20260506150021 | 12 | 45 | 17.7 | 25.7 | 0.00 | 0.00 | 0.00 | 76 | 1016.2 |
| 20260506145542 | 12 | 68 | 11.3 | 22.5 | 0.00 | 0.00 | 0.00 | 76 | 1016.4 |
| 20260506145208 | 12 | 45 | 11.3 | 19.3 | 0.00 | 0.00 | 0.00 | 77 | 1016.5 |
| 20260506144522 | 12 | 68 | 16.1 | 24.1 | 0.00 | 0.00 | 0.00 | 75 | 1016.5 |
| 20260506144103 | 12 | 45 | 16.1 | 27.4 | 0.00 | 0.00 | 0.00 | 75 | 1016.3 |
| 20260506143523 | 12 | 45 | 14.5 | 20.9 | 0.00 | 0.00 | 0.00 | 75 | 1016.4 |
| 20260506143022 | 12 | 45 | 17.7 | 27.4 | 0.00 | 0.00 | 0.00 | 75 | 1016.5 |
| 20260506142523 | 12 | 45 | 14.5 | 24.1 | 0.00 | 0.00 | 0.00 | 75 | 1016.5 |
| 20260506142040 | 12 | 45 | 14.5 | 22.5 | 0.00 | 0.00 | 0.00 | 77 | 1016.3 |
| 20260506141522 | 12 | 45 | 14.5 | 22.5 | 0.00 | 0.00 | 0.00 | 76 | 1015.9 |
| 20260506141044 | 12 | 45 | 16.1 | 27.4 | 0.00 | 0.00 | 0.00 | 75 | 1015.7 |
| 20260506140520 | 12 | 45 | 12.9 | 24.1 | 0.00 | 0.00 | 0.00 | 76 | 1015.7 |
| 20260506140022 | 12 | 45 | 20.9 | 27.4 | 0.00 | 0.00 | 0.00 | 76 | 1015.4 |
| 20260506135546 | 12 | 45 | 19.3 | 27.4 | 0.00 | 0.00 | 0.00 | 76 | 1015.4 |
| 20260506135022 | 12 | 45 | 14.5 | 24.1 | 0.00 | 0.00 | 0.00 | 77 | 1015.6 |
| 20260506134522 | 12 | 68 | 12.9 | 22.5 | 0.00 | 0.00 | 0.00 | 76 | 1015.4 |
| 20260506134022 | 12 | 45 | 14.5 | 22.5 | 0.00 | 0.00 | 0.00 | 76 | 1015.3 |
| 20260506133522 | 12 | 68 | 11.3 | 17.7 | 0.00 | 0.00 | 0.00 | 77 | 1015.4 |
| 20260506133127 | 12 | 68 | 12.9 | 24.1 | 0.00 | 0.00 | 0.00 | 77 | 1015.5 |
| 20260506132543 | 12 | 45 | 17.7 | 30.6 | 0.00 | 0.00 | 0.00 | 77 | 1015.4 |
| 20260506132023 | 12 | 45 | 11.3 | 25.7 | 0.00 | 0.00 | 0.00 | 78 | 1015.2 |
| 20260506131542 | 12 | 68 | 12.9 | 20.9 | 0.00 | 0.00 | 0.00 | 78 | 1015.1 |
| 20260506131238 | 12 | 45 | 17.7 | 27.4 | 0.00 | 0.00 | 0.00 | 77 | 1015.1 |
| 20260506130523 | 12 | 68 | 9.7 | 17.7 | 0.00 | 0.00 | 0.00 | 79 | 1015.1 |
| 20260506130022 | 12 | 68 | 16.1 | 30.6 | 0.00 | 0.00 | 0.00 | 79 | 1015.1 |
| 20260506125522 | 12 | 45 | 11.3 | 19.3 | 0.00 | 0.00 | 0.00 | 80 | 1015.0 |
| 20260506125022 | 12 | 45 | 11.3 | 17.7 | 0.00 | 0.00 | 0.00 | 79 | 1014.7 |
| 20260506124602 | 12 | 45 | 11.3 | 17.7 | 0.00 | 0.00 | 0.00 | 79 | 1014.7 |
| 20260506124042 | 12 | 45 | 12.9 | 19.3 | 0.00 | 0.00 | 0.00 | 80 | 1014.6 |
| 20260506123522 | 12 | 45 | 14.5 | 20.9 | 0.00 | 0.00 | 0.00 | 80 | 1014.6 |
| 20260506123022 | 12 | 45 | 12.9 | 19.3 | 0.00 | 0.00 | 0.00 | 81 | 1014.7 |
| 20260506122522 | 12 | 45 | 14.5 | 20.9 | 0.00 | 0.00 | 0.00 | 80 | 1014.7 |
| 20260506122022 | 12 | 68 | 11.3 | 22.5 | 0.00 | 0.00 | 0.00 | 81 | 1014.8 |
| 20260506121522 | 12 | 45 | 14.5 | 20.9 | 0.00 | 0.00 | 0.00 | 81 | 1014.6 |
| 20260506121043 | 12 | 45 | 14.5 | 24.1 | 0.00 | 0.00 | 0.00 | 83 | 1014.7 |
| 20260506120543 | 11 | 45 | 16.1 | 24.1 | 0.00 | 0.00 | 0.00 | 82 | 1014.6 |
| 20260506120043 | 11 | 45 | 20.9 | 29.0 | 0.00 | 0.00 | 0.00 | 82 | 1014.5 |
| 20260506115522 | 11 | 45 | 16.1 | 22.5 | 0.00 | 0.00 | 0.00 | 83 | 1014.5 |
| 20260506115022 | 11 | 45 | 16.1 | 20.9 | 0.00 | 0.00 | 0.00 | 82 | 1014.5 |
| 20260506114522 | 11 | 45 | 16.1 | 20.9 | 0.00 | 0.00 | 0.00 | 83 | 1014.3 |
| 20260506114022 | 11 | 45 | 14.5 | 24.1 | 0.00 | 0.00 | 0.00 | 83 | 1014.4 |
| 20260506113522 | 11 | 45 | 16.1 | 30.6 | 0.00 | 0.00 | 0.00 | 83 | 1014.3 |
| 20260506113042 | 11 | 45 | 14.5 | 27.4 | 0.00 | 0.00 | 0.00 | 83 | 1014.2 |
| 20260506112522 | 11 | 45 | 19.3 | 27.4 | 0.00 | 0.00 | 0.00 | 84 | 1013.9 |
| 20260506112043 | 11 | 45 | 20.9 | 27.4 | 0.00 | 0.00 | 0.00 | 84 | 1013.9 |
| 20260506111523 | 11 | 45 | 17.7 | 27.4 | 0.00 | 0.00 | 0.00 | 84 | 1014.0 |
| 20260506111023 | 11 | 45 | 22.5 | 30.6 | 0.00 | 0.00 | 0.00 | 84 | 1014.1 |
| 20260506110522 | 11 | 45 | 20.9 | 32.2 | 0.00 | 0.00 | 0.00 | 83 | 1014.0 |
| 20260506110023 | 11 | 45 | 17.7 | 24.1 | 0.00 | 0.00 | 0.00 | 84 | 1014.0 |
| 20260506105522 | 12 | 45 | 17.7 | 27.4 | 0.00 | 0.00 | 0.00 | 83 | 1014.1 |
| 20260506105022 | 12 | 45 | 16.1 | 27.4 | 0.00 | 0.00 | 0.00 | 81 | 1013.9 |
| 20260506104522 | 12 | 45 | 20.9 | 32.2 | 0.00 | 0.00 | 0.00 | 82 | 1014.0 |
| 20260506104022 | 11 | 23 | 17.7 | 27.4 | 0.00 | 0.00 | 0.00 | 81 | 1013.6 |
| 20260506103522 | 12 | 23 | 14.5 | 25.7 | 0.00 | 0.00 | 0.00 | 80 | 1013.9 |
| 20260506103022 | 12 | 45 | 14.5 | 20.9 | 0.00 | 0.00 | 0.00 | 81 | 1014.1 |
| 20260506102522 | 12 | 45 | 17.7 | 22.5 | 0.00 | 0.00 | 0.00 | 79 | 1013.9 |
| 20260506102022 | 12 | 45 | 19.3 | 29.0 | 0.00 | 0.00 | 0.00 | 82 | 1013.6 |
| 20260506101521 | 12 | 45 | 22.5 | 29.0 | 0.00 | 0.00 | 0.00 | 80 | 1013.3 |
| 20260506101023 | 12 | 45 | 24.1 | 32.2 | 0.00 | 0.00 | 0.00 | 82 | 1013.2 |
| 20260506100542 | 12 | 45 | 19.3 | 27.4 | 0.00 | 0.00 | 0.00 | 80 | 1013.5 |
| 20260506100023 | 12 | 45 | 17.7 | 24.1 | 0.00 | 0.00 | 0.00 | 81 | 1013.4 |
| 20260506095522 | 12 | 45 | 22.5 | 29.0 | 0.00 | 0.00 | 0.00 | 82 | 1013.5 |
| 20260506095022 | 12 | 45 | 20.9 | 29.0 | 0.00 | 0.00 | 0.00 | 81 | 1013.4 |
| 20260506094522 | 12 | 45 | 20.9 | 32.2 | 0.00 | 0.00 | 0.00 | 81 | 1013.1 |
| 20260506094021 | 12 | 45 | 22.5 | 32.2 | 0.00 | 0.00 | 0.00 | 78 | 1013.2 |
| 20260506093522 | 12 | 45 | 19.3 | 32.2 | 0.00 | 0.00 | 0.00 | 79 | 1013.1 |
| 20260506093022 | 12 | 45 | 20.9 | 29.0 | 0.00 | 0.00 | 0.00 | 78 | 1012.8 |
| 20260506092522 | 12 | 45 | 16.1 | 25.7 | 0.00 | 0.00 | 0.00 | 78 | 1012.6 |
| 20260506092021 | 12 | 45 | 17.7 | 25.7 | 0.00 | 0.00 | 0.00 | 77 | 1012.6 |
| 20260506091542 | 12 | 45 | 17.7 | 25.7 | 0.00 | 0.00 | 0.00 | 79 | 1012.6 |
| 20260506091021 | 12 | 45 | 17.7 | 30.6 | 0.00 | 0.00 | 0.00 | 78 | 1012.5 |
| 20260506090544 | 12 | 45 | 20.9 | 27.4 | 0.00 | 0.00 | 0.00 | 78 | 1012.4 |
| 20260506090042 | 12 | 45 | 19.3 | 25.7 | 0.00 | 0.00 | 0.00 | 77 | 1012.6 |
| 20260506085523 | 12 | 45 | 19.3 | 27.4 | 0.00 | 0.00 | 0.00 | 78 | 1012.3 |
| 20260506085022 | 12 | 45 | 19.3 | 27.4 | 0.00 | 0.00 | 0.00 | 78 | 1012.4 |
| 20260506084522 | 12 | 45 | 19.3 | 27.4 | 0.00 | 0.00 | 0.00 | 77 | 1012.3 |
| 20260506084102 | 12 | 45 | 12.9 | 20.9 | 0.00 | 0.00 | 0.00 | 77 | 1012.4 |
| 20260506083522 | 12 | 45 | 16.1 | 22.5 | 0.00 | 0.00 | 0.00 | 77 | 1012.3 |
| 20260506083022 | 12 | 45 | 16.1 | 25.7 | 0.00 | 0.00 | 0.00 | 77 | 1012.3 |
| 20260506082602 | 12 | 45 | 12.9 | 19.3 | 0.00 | 0.00 | 0.00 | 76 | 1012.3 |
| 20260506082021 | 12 | 0 | 12.9 | 20.9 | 0.00 | 0.00 | 0.00 | 75 | 1012.2 |
| 20260506081522 | 12 | 45 | 12.9 | 22.5 | 0.00 | 0.00 | 0.00 | 76 | 1012.2 |
| 20260506081022 | 12 | 45 | 16.1 | 24.1 | 0.00 | 0.00 | 0.00 | 76 | 1012.2 |
| 20260506080522 | 12 | 23 | 14.5 | 20.9 | 0.00 | 0.00 | 0.00 | 74 | 1012.2 |
| 20260506073021 | 13 | 45 | 14.5 | 24.1 | 0.00 | 0.00 | 0.00 | 77 | 1012.2 |
| 20260506072542 | 13 | 45 | 17.7 | 27.4 | 0.00 | 0.00 | 0.00 | 75 | 1012.1 |
| 20260506072023 | 13 | 45 | 14.5 | 24.1 | 0.00 | 0.00 | 0.00 | 76 | 1012.3 |
| 20260506071521 | 13 | 45 | 12.9 | 20.9 | 0.00 | 0.00 | 0.00 | 76 | 1012.1 |
| 20260506071027 | 13 | 45 | 14.5 | 20.9 | 0.00 | 0.00 | 0.00 | 76 | 1011.9 |
| 20260506070529 | 13 | 45 | 12.9 | 20.9 | 0.00 | 0.00 | 0.00 | 75 | 1011.7 |
| 20260506062101 | 13 | 45 | 16.1 | 20.9 | 0.00 | 0.00 | 0.00 | 75 | 1011.8 |
| 20260506061522 | 13 | 45 | 16.1 | 22.5 | 0.00 | 0.00 | 0.00 | 78 | 1011.9 |
| 20260506061021 | 13 | 45 | 16.1 | 24.1 | 0.00 | 0.00 | 0.00 | 77 | 1011.8 |
| 20260506060522 | 13 | 45 | 20.9 | 27.4 | 0.00 | 0.00 | 0.00 | 76 | 1011.6 |
| 20260506051043 | 13 | 45 | 20.9 | 25.7 | 0.00 | 0.00 | 0.00 | 77 | 1011.9 |
| 20260506050525 | 13 | 45 | 16.1 | 24.1 | 0.00 | 0.00 | 0.00 | 77 | 1012.0 |
| 20260506045021 | 14 | 45 | 19.3 | 27.4 | 0.00 | 0.00 | 0.00 | 76 | 1011.8 |
| 20260506044521 | 14 | 45 | 20.9 | 29.0 | 0.00 | 0.00 | 0.00 | 77 | 1011.9 |
| 20260506044041 | 14 | 45 | 19.3 | 30.6 | 0.00 | 0.00 | 0.00 | 77 | 1011.8 |
| 20260506043521 | 14 | 45 | 20.9 | 29.0 | 0.00 | 0.00 | 0.00 | 77 | 1011.9 |
| 20260506043021 | 14 | 45 | 22.5 | 29.0 | 0.00 | 0.00 | 0.00 | 76 | 1011.9 |
| 20260506042541 | 14 | 45 | 19.3 | 25.7 | 0.00 | 0.00 | 0.00 | 77 | 1011.9 |
| 20260506042021 | 14 | 45 | 16.1 | 22.5 | 0.00 | 0.00 | 0.00 | 77 | 1011.8 |
| 20260506041521 | 14 | 45 | 17.7 | 24.1 | 0.00 | 0.00 | 0.00 | 77 | 1011.8 |
| 20260506041021 | 14 | 68 | 16.1 | 29.0 | 0.00 | 0.00 | 0.00 | 77 | 1011.7 |
| 20260506040521 | 14 | 45 | 20.9 | 27.4 | 0.00 | 0.00 | 0.00 | 77 | 1011.6 |
| 20260506040021 | 15 | 68 | 19.3 | 27.4 | 0.00 | 0.00 | 0.00 | 78 | 1011.6 |
| 20260506035521 | 15 | 68 | 20.9 | 29.0 | 0.00 | 0.00 | 0.00 | 80 | 1011.6 |
| 20260506035041 | 15 | 68 | 19.3 | 29.0 | 0.00 | 0.00 | 0.00 | 78 | 1011.6 |
| 20260506034521 | 15 | 68 | 16.1 | 25.7 | 0.00 | 0.00 | 0.00 | 78 | 1011.7 |
| 20260506034021 | 15 | 45 | 17.7 | 30.6 | 0.00 | 0.00 | 0.00 | 78 | 1011.8 |
| 20260506033521 | 15 | 68 | 19.3 | 29.0 | 0.00 | 0.00 | 0.00 | 78 | 1011.6 |
| 20260506033041 | 15 | 68 | 19.3 | 29.0 | 0.00 | 0.00 | 0.00 | 77 | 1011.5 |
| 20260506032521 | 15 | 45 | 14.5 | 25.7 | 0.00 | 0.00 | 0.00 | 77 | 1011.6 |
| 20260506032021 | 15 | 45 | 16.1 | 24.1 | 0.00 | 0.00 | 0.00 | 78 | 1011.4 |
| 20260506031541 | 15 | 68 | 12.9 | 22.5 | 0.00 | 0.00 | 0.00 | 78 | 1011.4 |
| 20260506031021 | 15 | 68 | 9.7 | 22.5 | 0.00 | 0.00 | 0.00 | 79 | 1011.3 |
| 20260506030541 | 15 | 68 | 14.5 | 24.1 | 0.00 | 0.00 | 0.00 | 79 | 1011.1 |
| 20260506030042 | 15 | 68 | 17.7 | 25.7 | 0.00 | 0.00 | 0.00 | 80 | 1011.0 |
| 20260506025521 | 15 | 68 | 20.9 | 27.4 | 0.00 | 0.00 | 0.00 | 79 | 1011.1 |
| 20260506025021 | 15 | 68 | 19.3 | 27.4 | 0.00 | 0.00 | 0.00 | 79 | 1010.9 |
| 20260506024521 | 15 | 68 | 16.1 | 25.7 | 0.00 | 0.00 | 0.00 | 80 | 1010.8 |
| 20260506024021 | 15 | 68 | 14.5 | 25.7 | 0.00 | 0.00 | 0.00 | 79 | 1010.6 |
| 20260506023521 | 15 | 68 | 17.7 | 25.7 | 0.00 | 0.00 | 0.00 | 80 | 1010.5 |
| 20260506023020 | 15 | 68 | 22.5 | 30.6 | 0.00 | 0.00 | 0.00 | 79 | 1010.5 |
| 20260506022601 | 15 | 68 | 16.1 | 22.5 | 0.00 | 0.00 | 0.00 | 81 | 1010.1 |
| 20260506022021 | 15 | 68 | 20.9 | 27.4 | 0.00 | 0.00 | 0.00 | 80 | 1009.6 |
| 20260506021755 | 16 | 68 | 22.5 | 30.6 | 0.00 | 0.00 | 0.00 | 81 | 1009.1 |
| 20260506021021 | 16 | 68 | 22.5 | 30.6 | 0.00 | 0.00 | 0.00 | 82 | 1008.9 |
| 20260506020521 | 16 | 68 | 20.9 | 29.0 | 0.00 | 0.00 | 0.00 | 81 | 1009.0 |
| 20260506020021 | 16 | 68 | 22.5 | 32.2 | 0.00 | 0.00 | 0.00 | 81 | 1008.9 |
| 20260506015521 | 16 | 68 | 20.9 | 29.0 | 0.00 | 0.00 | 0.00 | 80 | 1008.6 |
| 20260506015021 | 16 | 68 | 25.7 | 33.8 | 0.00 | 0.00 | 0.00 | 80 | 1008.7 |
| 20260506014601 | 16 | 68 | 19.3 | 33.8 | 0.00 | 0.00 | 0.00 | 81 | 1008.7 |
| 20260506014021 | 16 | 68 | 19.3 | 29.0 | 0.00 | 0.00 | 0.00 | 79 | 1008.7 |
| 20260506013521 | 16 | 68 | 20.9 | 29.0 | 0.00 | 0.00 | 0.00 | 79 | 1008.5 |
| 20260506013020 | 16 | 45 | 16.1 | 30.6 | 0.00 | 0.00 | 0.00 | 79 | 1008.2 |
| 20260506012601 | 16 | 68 | 19.3 | 32.2 | 0.00 | 0.00 | 0.00 | 79 | 1008.3 |
| 20260506012021 | 17 | 68 | 22.5 | 32.2 | 0.00 | 0.00 | 0.00 | 79 | 1008.1 |
| 20260506011521 | 17 | 68 | 24.1 | 33.8 | 0.00 | 0.00 | 0.00 | 79 | 1008.1 |
| 20260506011041 | 17 | 68 | 22.5 | 35.4 | 0.00 | 0.00 | 0.00 | 79 | 1008.0 |
| 20260506010521 | 17 | 68 | 19.3 | 30.6 | 0.00 | 0.00 | 0.00 | 79 | 1007.8 |
| 20260506010021 | 17 | 45 | 16.1 | 30.6 | 0.00 | 0.00 | 0.00 | 78 | 1007.7 |
| 20260506005521 | 17 | 68 | 19.3 | 32.2 | 0.00 | 0.00 | 0.00 | 77 | 1007.9 |
| 20260506005021 | 17 | 45 | 17.7 | 29.0 | 0.00 | 0.00 | 0.00 | 76 | 1008.1 |
| 20260506004521 | 17 | 45 | 20.9 | 30.6 | 0.00 | 0.00 | 0.00 | 76 | 1007.9 |
| 20260506004021 | 18 | 45 | 16.1 | 27.4 | 0.00 | 0.00 | 0.00 | 77 | 1008.0 |
| 20260506003521 | 18 | 45 | 17.7 | 25.7 | 0.00 | 0.00 | 0.00 | 75 | 1007.7 |
| 20260506003041 | 18 | 68 | 22.5 | 30.6 | 0.00 | 0.00 | 0.00 | 75 | 1007.6 |
| 20260506002521 | 18 | 68 | 25.7 | 33.8 | 0.00 | 0.00 | 0.00 | 75 | 1007.6 |
| 20260506002021 | 19 | 68 | 24.1 | 33.8 | 0.00 | 0.00 | 0.00 | 75 | 1007.6 |
| 20260506001520 | 19 | 45 | 24.1 | 32.2 | 0.00 | 0.00 | 0.00 | 75 | 1007.6 |
| 20260506001021 | 20 | 23 | 14.5 | 30.6 | 0.00 | 0.00 | 0.00 | 73 | 1007.5 |
| 20260506000521 | 20 | 45 | 17.7 | 32.2 | 0.00 | 0.00 | 0.00 | 74 | 1007.5 |
| 20260506000020 | 20 | 45 | 22.5 | 29.0 | 0.00 | 0.00 | 0.00 | 74 | 1007.3 |
| 20260505235521 | 20 | 45 | 17.7 | 29.0 | 0.00 | 0.00 | 0.00 | 74 | 1007.0 |
| 20260505235022 | 20 | 23 | 12.9 | 22.5 | 0.00 | 0.00 | 0.00 | 73 | 1007.4 |
| 20260505234541 | 20 | 338 | 11.3 | 19.3 | 0.00 | 0.00 | 0.00 | 74 | 1007.6 |
| 20260505234022 | 20 | 338 | 12.9 | 22.5 | 0.00 | 0.00 | 0.00 | 73 | 1007.4 |
| 20260505233521 | 20 | 338 | 11.3 | 20.9 | 0.00 | 0.00 | 0.00 | 73 | 1007.3 |
| 20260505233041 | 20 | 0 | 12.9 | 22.5 | 0.00 | 0.00 | 0.00 | 73 | 1007.3 |
| 20260505232520 | 20 | 0 | 12.9 | 24.1 | 0.00 | 0.00 | 0.00 | 73 | 1007.1 |
| 20260505232021 | 20 | 338 | 14.5 | 27.4 | 0.00 | 0.00 | 0.00 | 73 | 1007.0 |
| 20260505231521 | 20 | 338 | 12.9 | 25.7 | 0.00 | 0.00 | 0.00 | 73 | 1007.1 |
| 20260505231020 | 21 | 0 | 19.3 | 30.6 | 0.00 | 0.00 | 0.00 | 72 | 1007.4 |
| 20260505230520 | 21 | 338 | 16.1 | 30.6 | 0.00 | 0.00 | 0.00 | 71 | 1007.1 |
| 20260505230021 | 21 | 0 | 14.5 | 22.5 | 0.00 | 0.00 | 0.00 | 71 | 1007.1 |
| 20260505225520 | 21 | 338 | 12.9 | 22.5 | 0.00 | 0.00 | 0.00 | 71 | 1007.2 |
| 20260505225020 | 21 | 338 | 11.3 | 24.1 | 0.00 | 0.00 | 0.00 | 71 | 1007.2 |
| 20260505224520 | 21 | 338 | 14.5 | 24.1 | 0.00 | 0.00 | 0.00 | 69 | 1007.2 |
| 20260505224020 | 22 | 315 | 9.7 | 19.3 | 0.00 | 0.00 | 0.00 | 70 | 1006.9 |
| 20260505223521 | 22 | 315 | 14.5 | 22.5 | 0.00 | 0.00 | 0.00 | 70 | 1007.0 |
| 20260505223021 | 22 | 315 | 14.5 | 29.0 | 0.00 | 0.00 | 0.00 | 70 | 1006.9 |
| 20260505222520 | 22 | 315 | 14.5 | 29.0 | 0.00 | 0.00 | 0.00 | 70 | 1006.6 |